N5PUP-13 Weather Reports


Display with metric or nautical units.
time (UTC)temp
F
wind
direction
speed
MPH
gust
MPH
rain 1hr
in
rain 24hr
in
rain mn
in
humidity
%
barometer
mb
20260906210000 104 128 9.0 14.0 0.00 0.00 0.00 27 1012.7
20260906205500 103 122 9.0 15.0 0.00 0.00 0.00 27 1012.8
20260906205000 102 138 7.0 14.0 0.00 0.00 0.00 28 1012.8
20260906204500 100 132 8.0 14.0 0.00 0.00 0.00 30 1012.9
20260906204000 103 200 3.0 7.0 0.00 0.00 0.00 28 1013.0
20260906203500 103 184 4.0 14.0 0.00 0.00 0.00 28 1013.0
20260906203000 103 155 7.0 13.0 0.00 0.00 0.00 28 1013.1
20260906202500 101 138 6.0 14.0 0.00 0.00 0.00 30 1013.2
20260906202000 103 135 8.0 16.0 0.00 0.00 0.00 28 1013.3
20260906201500 102 124 8.0 14.0 0.00 0.00 0.00 29 1013.3
20260906201000 102 120 7.0 14.0 0.00 0.00 0.00 29 1013.5
20260906200500 103 175 5.0 12.0 0.00 0.00 0.00 28 1013.6
20260906200000 102 148 6.0 11.0 0.00 0.00 0.00 28 1013.7
20260906195500 101 131 7.0 11.0 0.00 0.00 0.00 29 1013.7
20260906195000 103 159 7.0 14.0 0.00 0.00 0.00 27 1013.8
20260906194500 103 140 6.0 12.0 0.00 0.00 0.00 28 1013.8
20260906194000 103 130 7.0 14.0 0.00 0.00 0.00 28 1013.9
20260906193500 103 167 6.0 12.0 0.00 0.00 0.00 28 1014.1
20260906193000 104 169 3.0 16.0 0.00 0.00 0.00 27 1014.2
20260906192500 103 160 5.0 14.0 0.00 0.00 0.00 28 1014.3
20260906192000 103 160 5.0 10.0 0.00 0.00 0.00 28 1014.4
20260906191500 101 138 3.0 8.0 0.00 0.00 0.00 30 1014.3
20260906191000 101 152 4.0 10.0 0.00 0.00 0.00 29 1014.4
20260906190500 100 131 6.0 9.0 0.00 0.00 0.00 30 1014.5
20260906190000 100 141 5.0 8.0 0.00 0.00 0.00 31 1014.5
20260906185500 100 144 4.0 7.0 0.00 0.00 0.00 30 1014.6
20260906185000 103 135 5.0 10.0 0.00 0.00 0.00 28 1014.7
20260906184500 102 172 4.0 12.0 0.00 0.00 0.00 29 1014.7
20260906184000 103 178 7.0 14.0 0.00 0.00 0.00 28 1014.9
20260906183500 101 189 4.0 16.0 0.00 0.00 0.00 30 1014.8
20260906183000 101 183 4.0 14.0 0.00 0.00 0.00 29 1014.9
20260906182500 102 110 5.0 13.0 0.00 0.00 0.00 29 1014.9
20260906182000 103 169 5.0 11.0 0.00 0.00 0.00 28 1015.0
20260906181500 102 198 3.0 8.0 0.00 0.00 0.00 29 1015.1
20260906181000 100 133 5.0 10.0 0.00 0.00 0.00 31 1015.2
20260906180500 99 128 8.0 14.0 0.00 0.00 0.00 31 1015.3
20260906180000 100 141 4.0 16.0 0.00 0.00 0.00 31 1015.3
20260906175500 99 166 4.0 10.0 0.00 0.00 0.00 31 1015.3
20260906175000 97 191 5.0 13.0 0.00 0.00 0.00 33 1015.5
20260906174500 99 194 6.0 12.0 0.00 0.00 0.00 31 1015.6
20260906174000 99 168 7.0 13.0 0.00 0.00 0.00 31 1015.7
20260906173500 100 132 8.0 14.0 0.00 0.00 0.00 31 1015.7
20260906173000 100 142 5.0 10.0 0.00 0.00 0.00 31 1015.8
20260906172500 99 224 4.0 12.0 0.00 0.00 0.00 32 1015.8
20260906172000 100 172 6.0 11.0 0.00 0.00 0.00 30 1015.9
20260906171500 100 128 5.0 10.0 0.00 0.00 0.00 32 1015.9
20260906171000 100 154 4.0 8.0 0.00 0.00 0.00 32 1016.0
20260906170500 99 212 3.0 9.0 0.00 0.00 0.00 32 1016.1
20260906170000 99 136 5.0 9.0 0.00 0.00 0.00 32 1016.2
20260906165500 99 122 5.0 10.0 0.00 0.00 0.00 32 1016.3
20260906165000 100 182 5.0 13.0 0.00 0.00 0.00 32 1016.3
20260906164500 98 146 5.0 14.0 0.00 0.00 0.00 33 1016.3
20260906164000 97 176 8.0 14.0 0.00 0.00 0.00 34 1016.4
20260906163500 97 211 5.0 11.0 0.00 0.00 0.00 33 1016.3
20260906163000 97 168 6.0 14.0 0.00 0.00 0.00 33 1016.3
20260906162500 98 147 7.0 13.0 0.00 0.00 0.00 33 1016.3
20260906162000 97 177 8.0 15.0 0.00 0.00 0.00 34 1016.3
20260906161500 98 183 3.0 8.0 0.00 0.00 0.00 33 1016.3
20260906161000 97 189 4.0 11.0 0.00 0.00 0.00 34 1016.3
20260906160500 98 124 3.0 8.0 0.00 0.00 0.00 34 1016.3
20260906160000 97 149 4.0 12.0 0.00 0.00 0.00 35 1016.3
20260906155500 96 201 5.0 9.0 0.00 0.00 0.00 35 1016.3
20260906155000 95 202 4.0 7.0 0.00 0.00 0.00 36 1016.3
20260906154500 95 208 5.0 10.0 0.00 0.00 0.00 37 1016.3
20260906154000 94 179 6.0 10.0 0.00 0.00 0.00 38 1016.3
20260906153500 94 207 4.0 9.0 0.00 0.00 0.00 38 1016.3
20260906153000 94 166 5.0 10.0 0.00 0.00 0.00 38 1016.3
20260906152500 94 194 3.0 8.0 0.00 0.00 0.00 38 1016.3
20260906152000 93 221 6.0 10.0 0.00 0.00 0.00 38 1016.3
20260906151500 93 205 5.0 9.0 0.00 0.00 0.00 39 1016.3
20260906151000 92 228 7.0 12.0 0.00 0.00 0.00 39 1016.3
20260906150500 92 191 4.0 8.0 0.00 0.00 0.00 40 1016.2
20260906150000 92 171 4.0 8.0 0.00 0.00 0.00 40 1016.2
20260906145500 92 197 3.0 10.0 0.00 0.00 0.00 40 1016.2
20260906145000 91 184 5.0 10.0 0.00 0.00 0.00 41 1016.2
20260906144500 91 204 4.0 9.0 0.00 0.00 0.00 41 1016.1
20260906144000 90 197 4.0 8.0 0.00 0.00 0.00 42 1016.2
20260906143500 90 195 4.0 8.0 0.00 0.00 0.00 44 1016.2
20260906143000 89 176 3.0 8.0 0.00 0.00 0.00 44 1016.2
20260906142500 89 177 2.0 8.0 0.00 0.00 0.00 44 1016.2
20260906142000 89 186 2.0 8.0 0.00 0.00 0.00 45 1016.3
20260906141500 88 205 2.0 8.0 0.00 0.00 0.00 47 1016.3
20260906141000 87 171 3.0 5.0 0.00 0.00 0.00 47 1016.3
20260906140500 86 165 3.0 4.0 0.00 0.00 0.00 49 1016.3
20260906140000 86 168 2.0 5.0 0.00 0.00 0.00 50 1016.3
20260906135500 85 177 3.0 4.0 0.00 0.00 0.00 50 1016.3
20260906135000 84 205 1.0 5.0 0.00 0.00 0.00 51 1016.3
20260906134500 84 176 4.0 7.0 0.00 0.00 0.00 52 1016.2
20260906134000 83 170 1.0 4.0 0.00 0.00 0.00 53 1016.1
20260906133500 83 175 3.0 8.0 0.00 0.00 0.00 53 1016.0
20260906133000 82 159 1.0 6.0 0.00 0.00 0.00 54 1015.9
20260906132500 82 178 2.0 4.0 0.00 0.00 0.00 54 1015.9
20260906132000 82 167 1.0 4.0 0.00 0.00 0.00 55 1015.8
20260906131500 81 170 4.0 9.0 0.00 0.00 0.00 56 1015.8
20260906131000 80 184 2.0 6.0 0.00 0.00 0.00 57 1015.7
20260906130500 79 175 3.0 6.0 0.00 0.00 0.00 58 1015.7
20260906130000 79 179 3.0 6.0 0.00 0.00 0.00 59 1015.6
20260906125500 78 180 2.0 4.0 0.00 0.00 0.00 61 1015.5
20260906125000 76 168 0.0 2.0 0.00 0.00 0.00 64 1015.4
20260906124500 75 160 0.0 1.0 0.00 0.00 0.00 65 1015.4
20260906124000 75 156 0.0 2.0 0.00 0.00 0.00 67 1015.4
20260906123500 75 0 0.0 1.0 0.00 0.00 0.00 67 1015.3
20260906123000 75 0 0.0 0.0 0.00 0.00 0.00 67 1015.3
20260906122500 75 0 0.0 0.0 0.00 0.00 0.00 66 1015.2
20260906122000 75 0 0.0 2.0 0.00 0.00 0.00 66 1015.2
20260906121500 75 0 0.0 2.0 0.00 0.00 0.00 65 1015.1
20260906121000 75 196 1.0 3.0 0.00 0.00 0.00 65 1015.0
20260906120500 75 236 1.0 2.0 0.00 0.00 0.00 64 1015.0
20260906120000 75 234 1.0 4.0 0.00 0.00 0.00 64 1014.9
20260906115500 76 220 1.0 2.0 0.00 0.00 0.00 63 1014.9
20260906115000 76 214 1.0 4.0 0.00 0.00 0.00 63 1015.0
20260906114500 76 207 1.0 4.0 0.00 0.00 0.00 62 1015.0
20260906114000 76 207 1.0 4.0 0.00 0.00 0.00 63 1014.9
20260906113500 76 193 1.0 2.0 0.00 0.00 0.00 63 1014.9
20260906113000 76 216 1.0 3.0 0.00 0.00 0.00 63 1014.8
20260906112500 76 198 1.0 2.0 0.00 0.00 0.00 63 1014.9
20260906112000 76 170 1.0 3.0 0.00 0.00 0.00 62 1014.9
20260906111500 76 189 2.0 4.0 0.00 0.00 0.00 62 1014.9
20260906111000 76 190 1.0 4.0 0.00 0.00 0.00 63 1014.9
20260906110500 76 201 1.0 3.0 0.00 0.00 0.00 63 1014.9
20260906110000 76 185 1.0 4.0 0.00 0.00 0.00 62 1014.9
20260906105500 77 180 2.0 4.0 0.00 0.00 0.00 62 1014.8
20260906105000 77 191 2.0 4.0 0.00 0.00 0.00 61 1014.8
20260906104500 77 195 2.0 4.0 0.00 0.00 0.00 61 1014.8
20260906104000 76 190 2.0 5.0 0.00 0.00 0.00 62 1014.8
20260906103500 77 199 1.0 4.0 0.00 0.00 0.00 61 1014.7
20260906103000 77 182 2.0 5.0 0.00 0.00 0.00 61 1014.7
20260906102500 77 184 3.0 5.0 0.00 0.00 0.00 60 1014.6
20260906102000 78 184 3.0 5.0 0.00 0.00 0.00 59 1014.5
20260906101500 78 177 4.0 6.0 0.00 0.00 0.00 59 1014.5
20260906101000 78 183 4.0 6.0 0.00 0.00 0.00 59 1014.5
20260906100500 78 185 3.0 5.0 0.00 0.00 0.00 59 1014.4
20260906100000 78 200 2.0 4.0 0.00 0.00 0.00 60 1014.5
20260906095500 78 195 2.0 4.0 0.00 0.00 0.00 59 1014.4
20260906095000 79 187 2.0 6.0 0.00 0.00 0.00 58 1014.5
20260906094500 79 180 4.0 8.0 0.00 0.00 0.00 57 1014.4
20260906094000 79 176 3.0 7.0 0.00 0.00 0.00 58 1014.4
20260906093500 78 181 3.0 5.0 0.00 0.00 0.00 58 1014.4
20260906093000 78 180 3.0 6.0 0.00 0.00 0.00 59 1014.3
20260906092500 78 190 2.0 4.0 0.00 0.00 0.00 58 1014.3
20260906092000 78 194 2.0 4.0 0.00 0.00 0.00 58 1014.3
20260906091500 79 197 2.0 4.0 0.00 0.00 0.00 58 1014.2
20260906091000 79 185 3.0 6.0 0.00 0.00 0.00 57 1014.2
20260906090500 80 184 3.0 6.0 0.00 0.00 0.00 56 1014.3
20260906090000 80 180 4.0 8.0 0.00 0.00 0.00 55 1014.2
20260906085500 80 178 4.0 7.0 0.00 0.00 0.00 55 1014.2
20260906085000 79 173 3.0 4.0 0.00 0.00 0.00 56 1014.1
20260906084500 80 170 2.0 8.0 0.00 0.00 0.00 56 1014.1
20260906084000 80 179 3.0 7.0 0.00 0.00 0.00 56 1014.1
20260906083500 80 176 4.0 8.0 0.00 0.00 0.00 55 1014.1
20260906083000 79 177 4.0 8.0 0.00 0.00 0.00 56 1014.1
20260906082500 79 180 4.0 8.0 0.00 0.00 0.00 56 1014.2
20260906082000 79 183 4.0 7.0 0.00 0.00 0.00 56 1014.3
20260906081500 79 185 3.0 6.0 0.00 0.00 0.00 56 1014.3
20260906081000 79 189 3.0 8.0 0.00 0.00 0.00 56 1014.3
20260906080500 79 186 4.0 7.0 0.00 0.00 0.00 56 1014.4
20260906080000 79 189 3.0 4.0 0.00 0.00 0.00 57 1014.3
20260906075500 79 189 2.0 8.0 0.00 0.00 0.00 56 1014.3
20260906075000 79 202 2.0 5.0 0.00 0.00 0.00 56 1014.2
20260906074500 79 185 3.0 6.0 0.00 0.00 0.00 56 1014.2
20260906074000 80 187 2.0 6.0 0.00 0.00 0.00 55 1014.1
20260906073500 81 203 2.0 8.0 0.00 0.00 0.00 54 1014.1
20260906073000 81 187 4.0 9.0 0.00 0.00 0.00 53 1014.1
20260906072500 81 179 5.0 10.0 0.00 0.00 0.00 52 1014.0
20260906072000 81 184 7.0 10.0 0.00 0.00 0.00 52 1014.1
20260906071500 81 188 6.0 11.0 0.00 0.00 0.00 53 1014.1
20260906071000 80 190 4.0 7.0 0.00 0.00 0.00 54 1014.1
20260906070500 80 207 2.0 7.0 0.00 0.00 0.00 54 1014.1
20260906070000 80 190 3.0 7.0 0.00 0.00 0.00 53 1014.2
20260906065500 80 194 2.0 4.0 0.00 0.00 0.00 53 1014.1
20260906065000 81 198 3.0 7.0 0.00 0.00 0.00 53 1014.1
20260906064500 81 197 3.0 7.0 0.00 0.00 0.00 52 1014.1
20260906064000 82 190 4.0 8.0 0.00 0.00 0.00 51 1014.1
20260906063500 82 187 4.0 8.0 0.00 0.00 0.00 52 1014.2
20260906063000 82 193 3.0 6.0 0.00 0.00 0.00 51 1014.2
20260906062500 83 186 3.0 5.0 0.00 0.00 0.00 50 1014.2
20260906062000 83 185 2.0 6.0 0.00 0.00 0.00 49 1014.2
20260906061500 84 181 4.0 8.0 0.00 0.00 0.00 48 1014.2
20260906061000 84 188 4.0 10.0 0.00 0.00 0.00 48 1014.2
20260906060500 84 178 4.0 9.0 0.00 0.00 0.00 47 1014.1
20260906060000 85 180 6.0 10.0 0.00 0.00 0.00 47 1014.1
20260906055500 85 177 5.0 12.0 0.00 0.00 0.00 46 1014.0
20260906055000 86 178 8.0 14.0 0.00 0.00 0.00 45 1014.0
20260906054500 86 180 6.0 14.0 0.00 0.00 0.00 45 1014.1
20260906054000 86 170 5.0 12.0 0.00 0.00 0.00 45 1014.1
20260906053500 86 166 5.0 9.0 0.00 0.00 0.00 45 1014.1
20260906053000 86 168 4.0 6.0 0.00 0.00 0.00 45 1014.1
20260906052500 86 154 3.0 7.0 0.00 0.00 0.00 45 1014.0
20260906052000 87 162 3.0 7.0 0.00 0.00 0.00 45 1014.1
20260906051500 86 144 4.0 8.0 0.00 0.00 0.00 45 1014.1
20260906051000 87 140 3.0 6.0 0.00 0.00 0.00 44 1014.0
20260906050500 87 141 4.0 9.0 0.00 0.00 0.00 44 1014.0
20260906050000 87 143 4.0 8.0 0.00 0.00 0.00 44 1013.9
20260906045500 87 137 3.0 10.0 0.00 0.00 0.00 44 1013.9
20260906045000 87 141 4.0 8.0 0.00 0.00 0.00 43 1013.7
20260906044500 87 140 5.0 9.0 0.00 0.00 0.00 43 1013.7
20260906044000 87 132 6.0 11.0 0.00 0.00 0.00 43 1013.7
20260906043500 87 138 4.0 7.0 0.00 0.00 0.00 44 1013.8
20260906043000 87 137 3.0 8.0 0.00 0.00 0.00 44 1013.9
20260906042500 87 136 4.0 8.0 0.00 0.00 0.00 44 1013.9
20260906042000 87 140 3.0 7.0 0.00 0.00 0.00 44 1013.8
20260906041500 87 141 3.0 6.0 0.00 0.00 0.00 44 1014.0
20260906041000 87 139 4.0 11.0 0.00 0.00 0.00 43 1014.0
20260906040500 87 137 4.0 9.0 0.00 0.00 0.00 43 1014.0
20260906040000 87 136 4.0 7.0 0.00 0.00 0.00 43 1014.0
20260906035500 87 129 3.0 4.0 0.00 0.00 0.00 44 1014.0
20260906035000 88 143 2.0 6.0 0.00 0.00 0.00 43 1014.0
20260906034500 88 166 3.0 6.0 0.00 0.00 0.00 43 1014.0
20260906034000 88 156 3.0 7.0 0.00 0.00 0.00 43 1013.9
20260906033500 88 167 2.0 5.0 0.00 0.00 0.00 43 1013.9
20260906033000 88 154 3.0 6.0 0.00 0.00 0.00 42 1013.9
20260906032500 88 163 2.0 6.0 0.00 0.00 0.00 42 1013.8
20260906032000 88 143 3.0 7.0 0.00 0.00 0.00 42 1013.7
20260906031500 88 150 3.0 6.0 0.00 0.00 0.00 42 1013.6
20260906031000 88 149 3.0 6.0 0.00 0.00 0.00 41 1013.5
20260906030500 88 145 3.0 7.0 0.00 0.00 0.00 41 1013.5
20260906030000 89 137 3.0 5.0 0.00 0.00 0.00 41 1013.5
20260906025500 89 144 3.0 5.0 0.00 0.00 0.00 41 1013.4
20260906025000 89 152 3.0 7.0 0.00 0.00 0.00 40 1013.4
20260906024500 90 137 4.0 8.0 0.00 0.00 0.00 40 1013.5
20260906024000 89 135 4.0 6.0 0.00 0.00 0.00 40 1013.6
20260906023500 89 130 4.0 8.0 0.00 0.00 0.00 40 1013.5
20260906023000 89 136 4.0 7.0 0.00 0.00 0.00 40 1013.3
20260906022500 90 136 3.0 8.0 0.00 0.00 0.00 40 1013.3
20260906022000 90 134 4.0 6.0 0.00 0.00 0.00 40 1013.3
20260906021500 90 139 2.0 5.0 0.00 0.00 0.00 40 1013.2
20260906021000 90 138 2.0 3.0 0.00 0.00 0.00 40 1013.1
20260906020500 90 145 2.0 4.0 0.00 0.00 0.00 39 1013.1
20260906020000 90 161 1.0 4.0 0.00 0.00 0.00 39 1013.0
20260906015500 90 156 1.0 4.0 0.00 0.00 0.00 39 1012.9
20260906015000 91 160 1.0 4.0 0.00 0.00 0.00 40 1012.9
20260906014500 91 132 3.0 7.0 0.00 0.00 0.00 39 1012.8
20260906014000 91 140 2.0 4.0 0.00 0.00 0.00 39 1012.7
20260906013500 91 136 2.0 4.0 0.00 0.00 0.00 39 1012.6
20260906013000 91 148 2.0 4.0 0.00 0.00 0.00 38 1012.4
20260906012500 91 143 2.0 8.0 0.00 0.00 0.00 38 1012.4
20260906012000 91 140 2.0 4.0 0.00 0.00 0.00 38 1012.3
20260906011500 92 135 2.0 5.0 0.00 0.00 0.00 38 1012.3
20260906011000 92 138 1.0 4.0 0.00 0.00 0.00 38 1012.3
20260906010500 92 135 2.0 4.0 0.00 0.00 0.00 37 1012.4
20260906010000 93 141 2.0 4.0 0.00 0.00 0.00 37 1012.4
20260906005500 93 158 1.0 4.0 0.00 0.00 0.00 36 1012.4
20260906005000 94 146 2.0 7.0 0.00 0.00 0.00 36 1012.3
20260906004500 94 136 2.0 5.0 0.00 0.00 0.00 35 1012.3
20260906004000 94 149 2.0 4.0 0.00 0.00 0.00 35 1012.3
20260906003500 95 159 2.0 7.0 0.00 0.00 0.00 34 1012.3
20260906003000 95 154 2.0 4.0 0.00 0.00 0.00 34 1012.4
20260906002500 96 158 2.0 9.0 0.00 0.00 0.00 33 1012.4
20260906002000 96 132 4.0 8.0 0.00 0.00 0.00 32 1012.4
20260906001500 97 152 3.0 6.0 0.00 0.00 0.00 32 1012.4
20260906001000 97 139 3.0 8.0 0.00 0.00 0.00 31 1012.4
20260906000500 97 137 5.0 12.0 0.00 0.00 0.00 31 1012.3
20260906000000 98 150 3.0 9.0 0.00 0.00 0.00 31 1012.2
20260905235500 98 129 7.0 10.0 0.00 0.00 0.00 30 1012.2
20260905235000 98 133 4.0 8.0 0.00 0.00 0.00 30 1012.1
20260905234500 98 155 3.0 11.0 0.00 0.00 0.00 30 1012.1
20260905234000 99 163 4.0 9.0 0.00 0.00 0.00 30 1012.1
20260905233500 99 146 3.0 10.0 0.00 0.00 0.00 30 1012.0
20260905233000 99 153 4.0 8.0 0.00 0.00 0.00 30 1012.0
20260905232500 99 182 4.0 10.0 0.00 0.00 0.00 30 1011.8
20260905232000 99 164 6.0 14.0 0.00 0.00 0.00 30 1011.7
20260905231500 99 171 6.0 10.0 0.00 0.00 0.00 29 1011.6
20260905231000 100 124 6.0 12.0 0.00 0.00 0.00 29 1011.5
20260905230500 100 127 6.0 11.0 0.00 0.00 0.00 30 1011.5
20260905230000 100 148 5.0 10.0 0.00 0.00 0.00 29 1011.4
20260905225500 100 152 6.0 14.0 0.00 0.00 0.00 30 1011.4
20260905225000 101 153 4.0 14.0 0.00 0.00 0.00 29 1011.4
20260905224500 101 136 4.0 12.0 0.00 0.00 0.00 29 1011.3
20260905224000 101 120 8.0 14.0 0.00 0.00 0.00 29 1011.3
20260905223500 101 136 4.0 11.0 0.00 0.00 0.00 29 1011.3
20260905223000 101 135 4.0 10.0 0.00 0.00 0.00 29 1011.3
20260905222500 101 131 3.0 8.0 0.00 0.00 0.00 30 1011.3
20260905222000 101 159 6.0 14.0 0.00 0.00 0.00 29 1011.3
20260905221500 101 161 5.0 13.0 0.00 0.00 0.00 29 1011.3
20260905221000 102 143 4.0 8.0 0.00 0.00 0.00 29 1011.3
20260905220500 101 122 8.0 13.0 0.00 0.00 0.00 29 1011.3
20260905220000 101 121 6.0 11.0 0.00 0.00 0.00 29 1011.4
20260905215500 102 142 5.0 12.0 0.00 0.00 0.00 29 1011.4
20260905215000 102 127 6.0 13.0 0.00 0.00 0.00 29 1011.5
20260905214500 99 171 6.0 11.0 0.00 0.00 0.00 31 1011.5
20260905214000 102 169 4.0 10.0 0.00 0.00 0.00 29 1011.6
20260905213500 102 145 4.0 10.0 0.00 0.00 0.00 28 1011.6
20260905213000 102 174 5.0 12.0 0.00 0.00 0.00 29 1011.7
20260905212500 103 168 7.0 12.0 0.00 0.00 0.00 29 1011.8
20260905212000 103 148 4.0 12.0 0.00 0.00 0.00 29 1011.8
20260905211500 101 177 5.0 11.0 0.00 0.00 0.00 30 1011.9
20260905211000 103 179 4.0 11.0 0.00 0.00 0.00 29 1012.0
20260905210500 103 152 5.0 14.0 0.00 0.00 0.00 28 1012.0